User: anonymous   Login
Location: Unspecified
(0.0000°N, 0.0000°E)
Time: 00:37:53
(UTC+00:00)
Language:

MOS 1 - Orbit

View from above orbital plane
View from above orbital plane
View from above satellite
View from above satellite

Ground track
Ground track

The orbit data is extracted from the following two-line orbital elements,

1 17527U 87018A   19022.08324794  .00000026  00000-0  46686-4 0  9999
2 17527  99.2243  55.1399 0009477 122.1872 295.2705 14.02530453631305
Epoch (UTC): 22 January 2019 01:59:52
Eccentricity: 0.0009477
inclination: 99.2243°
perigee height: 878 km
apogee height: 892 km
right ascension of ascending node: 55.1399°
argument of perigee: 122.1872°
revolutions per day: 14.02530453
mean anomaly at epoch: 295.2705°
orbit number at epoch: 63130

The dashed part of the orbit path shows where the satellite is in the earth's shadow,  

DLR